Regional Weather Roundup
Issued by NWS

Home | Current Version | Previous Version | Text Only | Print | Product List | Glossary On
Versions: 1 2 3 4 5 6 7 8 9 10 11 12 13 14 15 16 17 18 19 20 21 22 23 24 25 26 27
000
ASUS45 KSLC 272210
RWRUT

UTAH REGIONAL WEATHER ROUNDUP
NATIONAL WEATHER SERVICE SALT LAKE CITY UT
300 PM MST MON FEB 27 2017

UTZ001>011-023>025-272300-

NORTHERN UTAH

CITY           SKY/WX    TMP DP  RH WIND       PRES   REMARKS
BRIGHAM CITY     N/A     35  17  46 W15G23    29.71R WCI  26
DUGWAY         PTSUNNY   38  24  57 CALM      29.73S
HILL AFB       CLOUDY    32  20  59 W15       29.70R WCI  22
LOGAN          CLOUDY    31  24  75 N15       29.70R WCI  20
OGDEN          CLOUDY    33  19  56 W13       29.71R WCI  24
SALT LAKE CITY FLURRIES  34  27  75 W7        29.73R WCI  28
TOOELE VALLEY  CLOUDY    34  30  86 S10       29.74R WCI  26
WENDOVER       MOSUNNY   37   9  30 NW17G24   29.74R WCI  28
HEBER CITY     LGT SNOW  30  25  80 CALM      29.66R VSB 1
WEST JORDAN    CLOUDY    36  32  87 NW12      29.73R WCI  27

$$

UTZ011>015-024>027-272300-

CENTRAL/NORTHEAST UTAH

CITY           SKY/WX    TMP DP  RH WIND       PRES   REMARKS
PROVO AIRPORT  LGT SNOW  32  28  86 NW12      29.75R FOG     WCI  23
MOAB/CANYONLAN PTSUNNY   52  18  26 SW30G40   29.62S
DELTA          CLOUDY    30  28  93 NE3       29.74R
PRICE          PTSUNNY   40  25  55 W15G23    29.59R WCI  32
ROOSEVELT      LGT SNOW  32  30  93 W3        29.64S
VERNAL         CLOUDY    35  27  72 N6        29.59S WCI  30

$$

UTZ013>016-019>022-027-272300-

SOUTHERN UTAH

CITY           SKY/WX    TMP DP  RH WIND       PRES   REMARKS
BRYCE CANYON   LGT SNOW  29  24  82 SW16      29.73S VSB 1   WCI  17
CEDAR CITY     CLOUDY    41  25  53 S24G33    29.71S
MILFORD        PTSUNNY   45  26  47 SW32G43   29.69F
ST GEORGE      CLOUDY    53  31  42 NE5       29.76F
HANKSVILLE     PTSUNNY   52  19  28 SW29G41   29.66F
BLANDING       CLOUDY    45  19  35 SW22G29   29.82S

$$

REGIONAL REPORTS     COLORADO/ARIZONA

CITY           SKY/WX    TMP DP  RH WIND       PRES   REMARKS
CRAIG, CO      LGT SNOW  27  21  78 NW14G20   29.62R WCI  16
GRAND JUNCTION CLOUDY    48  23  37 SW17G36   29.65F
RIFLE, CO      CLOUDY    42  26  53 W8        29.64F
MONTROSE, CO   CLOUDY    45  19  35 SW22G38   29.72R
CORTEZ, CO     CLOUDY    46  21  37 SW21G31   29.80F
COLORADO CITY  MOCLDY    45  34  65 SW17G23   29.81S
PAGE, AZ       CLOUDY    53  22  29 SW9G23    29.73R
GRAND CANYON   LGT SNOW  33  33 100 SW13      29.83F VSB 3/4 WCI  24
KINGMAN, AZ    CLOUDY    49  40  71 S22G30    29.83S
FLAGSTAFF, AZ  SNOW      31  31 100 SW20G28   29.85F VSB 1/2 WCI  19

$$

REGIONAL REPORTS    NEVADA/IDAHO/WYOMING

CITY           SKY/WX    TMP DP  RH WIND       PRES   REMARKS
LAS VEGAS, NV  CLOUDY    56  33  42 SW12G21   29.75F
ELY, NY        CLOUDY    28  19  69 N13       29.73R WCI  17
ELKO, NV       MOSUNNY   34  12  40 W22       29.74R WCI  22
POCATELLO, ID  CLOUDY    27  21  78 SW20      29.70R WCI  13
BURLEY, ID     LGT RAIN  34  19  54 W18G29    29.70R WCI  23
FORT BRIDGER,  SNOW      23  22  96 W22G30    29.64S VSB 1/2 WCI   7
EVANSTON, WY   CLOUDY    22  12  65 W16       29.61R WCI   8
ROCK SPRINGS,  CLOUDY    24  18  77 SW14      29.60R WCI  12

$$




USA.gov is the U.S. government's official web portal to all federal, state and local government web resources and services.